TimeEDT,TemperatureF,Dew PointF,Humidity,Sea Level PressureIn,VisibilityMPH,Wind Direction,Wind SpeedMPH,Gust SpeedMPH,PrecipitationIn,Events,Conditions,WindDirDegrees,DateUTC
12:06 AM,59.0,53.6,82,30.10,10.0,NE,9.2,-,N/A,,Overcast,40,2012-10-10 04:06:00
12:48 AM,59.0,55.4,88,30.08,10.0,ENE,11.5,19.6,N/A,,Overcast,60,2012-10-10 04:48:00
12:53 AM,59.0,55.0,87,30.08,10.0,ENE,12.7,19.6,N/A,,Overcast,70,2012-10-10 04:53:00
1:53 AM,60.1,55.0,83,30.07,10.0,ENE,10.4,-,N/A,,Overcast,60,2012-10-10 05:53:00
2:53 AM,61.0,55.9,83,30.06,10.0,East,9.2,-,N/A,,Overcast,80,2012-10-10 06:53:00
3:53 AM,61.0,55.9,83,30.05,10.0,East,8.1,-,N/A,,Overcast,80,2012-10-10 07:53:00
4:53 AM,61.0,55.9,83,30.05,10.0,East,8.1,-,N/A,,Overcast,80,2012-10-10 08:53:00
5:53 AM,61.0,55.9,83,30.03,10.0,East,10.4,-,N/A,,Overcast,80,2012-10-10 09:53:00
6:53 AM,62.1,57.0,84,30.01,10.0,East,9.2,-,N/A,,Overcast,90,2012-10-10 10:53:00
7:53 AM,62.1,57.9,86,30.00,10.0,East,8.1,-,N/A,,Overcast,90,2012-10-10 11:53:00
8:53 AM,63.0,57.9,84,30.00,10.0,East,6.9,-,N/A,,Overcast,90,2012-10-10 12:53:00
9:53 AM,64.0,59.0,84,29.98,10.0,ESE,8.1,-,N/A,,Overcast,110,2012-10-10 13:53:00
10:53 AM,66.0,59.0,78,29.96,10.0,East,11.5,-,N/A,,Overcast,100,2012-10-10 14:53:00
11:00 AM,66.2,59.0,78,29.95,10.0,East,13.8,-,N/A,,Overcast,100,2012-10-10 15:00:00
11:29 AM,66.2,59.0,78,29.94,10.0,ESE,13.8,-,N/A,,Overcast,120,2012-10-10 15:29:00
11:53 AM,66.9,59.0,76,29.93,10.0,SE,15.0,-,N/A,,Overcast,130,2012-10-10 15:53:00
12:00 PM,66.2,60.8,83,29.93,10.0,SE,13.8,-,N/A,,Overcast,130,2012-10-10 16:00:00
12:22 PM,66.2,59.0,78,29.91,10.0,ESE,17.3,23.0,N/A,,Overcast,120,2012-10-10 16:22:00
12:53 PM,66.0,60.1,81,29.89,10.0,SE,15.0,-,N/A,,Overcast,140,2012-10-10 16:53:00
1:53 PM,66.9,60.1,79,29.85,10.0,SE,12.7,20.7,N/A,,Overcast,130,2012-10-10 17:53:00
2:05 PM,66.2,60.8,83,29.84,10.0,SE,12.7,19.6,N/A,,Mostly Cloudy,130,2012-10-10 18:05:00
2:53 PM,68.0,60.1,76,29.81,10.0,SE,16.1,-,N/A,,Overcast,130,2012-10-10 18:53:00
3:30 PM,66.2,60.8,83,29.79,10.0,ESE,18.4,24.2,N/A,,Overcast,120,2012-10-10 19:30:00
3:40 PM,66.2,60.8,83,29.78,10.0,SE,12.7,25.3,N/A,,Overcast,130,2012-10-10 19:40:00
3:53 PM,66.0,60.1,81,29.78,10.0,SSE,19.6,25.3,N/A,,Overcast,150,2012-10-10 19:53:00
4:00 PM,66.2,60.8,83,29.78,10.0,SE,13.8,25.3,N/A,,Overcast,140,2012-10-10 20:00:00
4:17 PM,66.2,60.8,83,29.77,10.0,SSE,15.0,24.2,N/A,,Overcast,150,2012-10-10 20:17:00
4:53 PM,64.9,62.1,90,29.75,3.0,SE,15.0,20.7,0.01,Rain,Light Rain,140,2012-10-10 20:53:00
5:36 PM,66.2,62.6,88,29.75,10.0,SW,5.8,-,0.06,,Mostly Cloudy,220,2012-10-10 21:36:00
5:38 PM,66.2,62.6,88,29.75,10.0,SW,5.8,-,0.06,,Mostly Cloudy,220,2012-10-10 21:38:00
5:48 PM,66.2,60.8,83,29.74,10.0,Calm,Calm,-,0.06,,Mostly Cloudy,0,2012-10-10 21:48:00
5:53 PM,66.0,59.0,78,29.75,10.0,SW,3.5,-,0.06,,Mostly Cloudy,220,2012-10-10 21:53:00
6:30 PM,64.4,57.2,77,29.75,10.0,WSW,5.8,-,N/A,,Mostly Cloudy,240,2012-10-10 22:30:00
6:53 PM,64.0,60.1,87,29.76,10.0,WSW,8.1,-,N/A,,Scattered Clouds,250,2012-10-10 22:53:00
6:57 PM,64.4,60.8,88,29.76,10.0,WSW,9.2,-,N/A,,Mostly Cloudy,240,2012-10-10 22:57:00
7:12 PM,64.4,60.8,88,29.76,10.0,WSW,8.1,-,N/A,,Scattered Clouds,240,2012-10-10 23:12:00
7:53 PM,63.0,57.0,81,29.77,10.0,WSW,6.9,-,N/A,,Clear,250,2012-10-10 23:53:00
8:53 PM,63.0,55.9,78,29.78,10.0,WSW,6.9,-,N/A,,Mostly Cloudy,250,2012-10-11 00:53:00
9:53 PM,62.1,55.0,78,29.80,10.0,WSW,5.8,-,N/A,,Mostly Cloudy,250,2012-10-11 01:53:00
10:53 PM,63.0,52.0,67,29.81,10.0,West,9.2,-,N/A,,Clear,270,2012-10-11 02:53:00
11:53 PM,63.0,48.9,60,29.81,10.0,West,11.5,19.6,N/A,,Clear,280,2012-10-11 03:53:00